Regional Weather Roundup
Issued by NWS Green Bay, WI

Home | Current Version | Previous Version | Text Only | Print | Product List | Glossary On
Versions: 1 2 3 4 5 6 7 8 9 10 11 12 13 14 15 16 17 18 19 20 21 22 23 24 25 26 27 28 29 30 31 32 33 34 35 36 37 38 39 40 41 42 43 44 45 46 47 48 49 50
000
ASUS43 KGRB 281359
RWRGRB

NORTH-CENTRAL AND NORTHEAST WISCONSIN REGIONAL WEATHER ROUNDUP
NATIONAL WEATHER SERVICE GREEN BAY WI
900 AM CDT MON JUL 28 2014

WIZ005-009-010>012-018-019-281500-
NORTH CENTRAL WISCONSIN

CITY           SKY/WX    TMP DP  RH WIND       PRES   REMARKS
IRONWOOD       MOSUNNY   61  55  82 NW6       30.12S
MANITOWISH WTR NOT AVBL
ARBOR VITAE    NOT AVBL
EAGLE RIVER    NOT AVBL
LAND O LAKES   NOT AVBL
RHINELANDER    PTSUNNY   57  51  80 W7        30.14S
PHILLIPS       NOT AVBL
ANTIGO         NOT AVBL
TOMAHAWK       NOT AVBL
MERRILL        NOT AVBL
$$

WIZ013-073-281500-
NORTHEAST WISCONSIN

CITY           SKY/WX    TMP DP  RH WIND       PRES   REMARKS
IRON MOUNTAIN  CLOUDY    55  47  74 NW3       30.09S
MARINETTE      CLOUDY    55  43  62 N8        30.10R
$$

WIZ017-030-035>037-045-281500-
CENTRAL WISCONSIN

CITY           SKY/WX    TMP DP  RH WIND       PRES   REMARKS
MEDFORD        NOT AVBL
WAUSAU         MOSUNNY   58  51  78 NW8       30.13S
MOSINEE        NOT AVBL
MARSHFIELD     SUNNY     61  52  72 NW9       30.15R
WISC RAPIDS    SUNNY     61  50  67 MISG      30.16R
STEVENS POINT  NOT AVBL
WAUPACA        NOT AVBL
SHAWANO        NOT AVBL
CLINTONVILLE   NOT AVBL
$$

WIZ038-039-048-051-281500-
FOX VALLEY

CITY           SKY/WX    TMP DP  RH WIND       PRES   REMARKS
NWS GREEN BAY  SUNNY     59  46  62 N13       30.11R
APPLETON       MOSUNNY   57  46  67 N15       30.12R
OSHKOSH        SUNNY     59  47  64 N10G21    30.12R
FOND DU LAC    SUNNY     59  48  67 N13       30.12R
$$

WIZ022-050-052-281500-
EAST CENTRAL WISCONSIN

CITY           SKY/WX    TMP DP  RH WIND       PRES   REMARKS
STURGEON BAY   SUNNY     55  43  62 N17       30.10R
MANITOWOC      NOT AVBL
SHEBOYGAN      SUNNY     58  47  66 N13       30.08R
$$

LMZ563-521-522-541>543-281500-
LAKESHORE

STATION/POSITION TIME  TEMP    WIND        PRES    VSBY  WAVE
                       AIR SEA DIR/SP/G                  HT/PER
                 (UTC) (F)     (DEG/KT/KT) (MB)    (MI)  (FT/S)
SHEBOYGAN LKSHOR 1300   55     340/ 14/ 16 1018.2R
KEWAUNEE LKSHORE 1300   56     340/  9/ 14 1019.0R
NORTHPORT PIER   1300   55     350/ 16/ 19 1018.3R
N MID LAKE BUOY  1300   53 54  350/ 19/ 21 1016.5R         4/ 5
SISTER BAY LKSHO 1300   58     350/ 14/ 19   N/A
CHAMBERS ISLAND  1300   55     330/ 14/ 18 1018.6R
MENOMINEE LKSHOR 1300   54     340/ 11/ 12 1019.6R
$$


USA.gov is the U.S. government's official web portal to all federal, state and local government web resources and services.